This demonstration page uses our WeatherBlox Daily Observations layout. Learn more.

39.92423, -83.80882

Hourly Observations for May 31, 2016

Temp ( °F °C ) Dew Point ( °F °C ) Humidity (%) Winds ( mph kmh ) Pressure ( in mb ) Visibility ( mi km ) Precip ( " mm )
12:56 am 00:56 Clear 65 18.3 64 17.7 96 96 ESE 3 6 29.98 1015 10 16.0934 0 0
1:56 am 01:56 Clear 65 18.3 64 17.7 96 96 Calm 29.98 1015 10 16.0934 0 0
2:56 am 02:56 Mostly Cloudy 65 18.3 63 17.2 93 93 Calm 29.98 1015 10 16.0934 0 0
3:56 am 03:56 Clear 64 17.7 63 17.2 97 97 Calm 29.97 1015 10 16.0934 0 0
4:56 am 04:56 Clear 63 17.2 63 17.2 100 100 Calm 29.97 1015 10 16.0934 0 0
5:56 am 05:56 Clear 61 16.1 61 16.1 100 100 Calm 29.98 1015 10 16.0934 0 0
6:56 am 06:56 Sunny 61 16.1 61 16.1 100 100 Calm 29.99 1016 10 16.0934 0 0
7:56 am 07:56 Sunny 65 18.3 64 17.7 96 96 Calm 30.01 1016 10 16.0934 0 0
8:56 am 08:56 Sunny 72 22.2 63 17.2 73 73 Calm 30.02 1017 10 16.0934 0 0
9:56 am 09:56 Sunny 78 25.5 62 16.6 58 58 E 3 6 30.01 1016 10 16.0934 0 0
10:56 am 10:56 Sunny 83 28.3 61 16.1 48 48 NNE 3 6 30.01 1016 10 16.0934 0 0
11:56 am 11:56 Sunny 85 29.4 58 14.4 40 40 Calm 30.01 1016 10 16.0934 0 0
12:56 pm 12:56 Sunny 86 30 59 15 40 40 SE 7 11 30 1016 10 16.0934 0 0
1:56 pm 13:56 Sunny 87 30.5 56 13.3 35 35 Calm 29.98 1015 10 16.0934 0 0
2:56 pm 14:56 Sunny 89 31.6 57 13.8 34 34 NE 6 9 29.97 1015 10 16.0934 0 0
3:56 pm 15:56 Sunny 90 32.2 55 12.7 30 30 Calm 29.96 1015 10 16.0934 0 0
4:56 pm 16:56 Mostly Sunny 89 31.6 53 11.6 29 29 S 6 9 29.96 1014 10 16.0934 0 0
5:56 pm 17:56 Mostly Cloudy 89 31.6 56 13.3 33 33 N 6 9 29.95 1014 10 16.0934 0 0
6:56 pm 18:56 Partly Cloudy 85 29.4 59 15 42 42 SSE 9 15 29.94 1014 10 16.0934 0 0
7:56 pm 19:56 Cloudy 83 28.3 60 15.5 46 46 NNE 7 11 29.95 1014 10 16.0934 0 0
8:56 pm 20:56 Mostly Sunny 78 25.5 58 14.4 50 50 NE 9 15 29.96 1015 10 16.0934 0 0
9:56 pm 21:56 Clear 76 24.4 59 15 56 56 ENE 14 22 29.97 1015 10 16.0934 0 0
10:56 pm 22:56 Mostly Clear 73 22.7 60 15.5 64 64 ENE 8 13 29.99 1016 10 16.0934 0 0
11:56 pm 23:56 Clear 71 21.6 60 15.5 68 68 E 7 11 30 1016 10 16.0934 0 0

Powered by AerisWeather